Waarnemingen

Advertentie
Mijn weer
Zwiesel, Duitsland (10796): temperatuur & dauwpunt: 18.02.2017 16:00:00 - 24.02.2017 16:00:00 (CET)Zwiesel, Duitsland (10796): temperatuur 5cm & temperatuur -5cm: 18.02.2017 16:00:00 - 24.02.2017 16:00:00 (CET)Zwiesel, Duitsland (10796): temperatuur -20cm & temperatuur -100cm: 18.02.2017 16:00:00 - 24.02.2017 16:00:00 (CET)Zwiesel, Duitsland (10796): windsnelheid & windstoten: 18.02.2017 16:00:00 - 24.02.2017 16:00:00 (CET)Zwiesel, Duitsland (10796): windrichting: 18.02.2017 16:00:00 - 24.02.2017 16:00:00 (CET)Zwiesel, Duitsland (10796): luchtdruk: 18.02.2017 16:00:00 - 24.02.2017 16:00:00 (CET)Zwiesel, Duitsland (10796): zicht: 18.02.2017 16:00:00 - 24.02.2017 16:00:00 (CET)Zwiesel, Duitsland (10796): Zonneschijnduur: 18.02.2017 16:00:00 - 24.02.2017 16:00:00 (CET)Zwiesel, Duitsland (10796): neerslag: 18.02.2017 16:00:00 - 24.02.2017 16:00:00 (CET)
Datum & Tijd tt [°C] td [°C] tt 5cm [°C] tt -5cm [°C] tt -20cm [°C] tt -100cm [°C] ff [km/u] ff [kn] fx [km/u] fx [kn] dd ppp [hPa] vv [km] sd [min] rr [mm]
24.02.2017 16:00:00 3,0 -4,6 0,1 0,0 -0,2 2,3 26 14 40 21 WNW 1012,5 66 26 0,0
24.02.2017 15:00:00 3,5 -3,3 0,2 0,0 -0,2 2,3 22 12 44 24 W 1011,6 38 7 0,0
24.02.2017 14:00:00 2,9 -1,5 0,2 0,0 -0,2 2,3 23 12 45 25 W 1011,6 28 13 0,0
24.02.2017 13:00:00 2,9 -1,5 0,2 0,0 -0,2 2,3 9 5 25 14 WZW 1011,1 63 6 0,6
24.02.2017 12:00:00 3,3 -2,6 0,2 0,0 -0,2 2,4 13 7 46 25 WNW 1010,9 30 1 0,0
24.02.2017 11:00:00 3,2 -2,8 0,2 0,0 -0,2 2,4 19 11 45 25 W 1010,5 59 3 0,0
24.02.2017 10:00:00 3,1 -2,5 0,1 0,0 -0,2 2,4 19 10 45 24 W 1009,9 59 0 0,0
24.02.2017 09:00:00 3,1 -2,5 0,1 0,0 -0,2 2,4 22 12 46 25 W 1009,2 70 0 0,0
24.02.2017 08:00:00 3,2 -2,5 0,1 0,0 -0,2 2,4 26 14 46 25 W 1007,7 70 0 0,0
24.02.2017 07:00:00 3,8 -2,7 0,0 0,0 -0,2 2,4 23 12 49 26 W 1005,5 70 0 0,0
24.02.2017 06:00:00 4,4 -3,0 0,0 0,0 -0,2 2,4 22 12 58 32 W 1004,1 70 0 0,0
24.02.2017 05:00:00 5,2 -2,6 0,0 0,0 -0,2 2,4 37 20 60 32 W 1002,8 59 0 0,0
24.02.2017 04:00:00 5,5 -1,0 0,0 0,0 -0,2 2,4 29 15 54 29 W 1001,7 69 0 0,0
24.02.2017 03:00:00 5,9 -0,8 0,0 0,0 -0,2 2,4 28 15 53 29 W 1001,3 30 0 0,0
24.02.2017 02:00:00 6,7 -1,1 0,0 0,0 -0,2 2,4 27 15 64 35 WZW 1000,3 70 0 0,0
24.02.2017 01:00:00 7,6 2,6 0,0 0,0 -0,2 2,4 25 14 61 33 W 999,6 70 0 0,0
24.02.2017 00:00:00 8,8 1,7 0,0 0,0 -0,2 2,4 24 13 50 27 WZW 999,1 70 0 0,0
23.02.2017 23:00:00 10,2 -1,5 0,0 0,0 -0,2 2,5 22 12 58 31 W 998,2 70 0 0,0
23.02.2017 22:00:00 12,1 -3,0 0,0 0,0 -0,2 2,5 34 18 66 35 WZW 997,6 70 0 0,0
23.02.2017 21:00:00 12,7 -2,2 0,0 0,0 -0,2 2,5 30 16 52 28 WZW 997,5 70 0 0,0
23.02.2017 20:00:00 12,9 -1,6 0,0 0,0 -0,2 2,5 18 10 36 19 ZW 997,2 70 0 0,0
23.02.2017 19:00:00 12,6 -1,7 0,0 0,0 -0,2 2,5 12 7 25 14 ZW 997,9 70 0 0,0
23.02.2017 18:00:00 12,8 -1,6 0,0 0,0 -0,2 2,5 11 6 29 16 ZW 998,1 70 0 0,0
23.02.2017 17:00:00 12,9 -1,0 0,0 0,0 -0,2 2,5 13 7 41 22 ZW 998,3 69 0 0,0
23.02.2017 16:00:00 13,0 0,1 0,0 0,0 -0,2 2,5 14 8 40 21 ZW 999,0 56 29 0,0
23.02.2017 15:00:00 13,1 0,4 0,0 0,0 -0,2 2,5 13 7 41 22 ZW 1000,5 59 4 0,0
23.02.2017 14:00:00 11,1 1,3 0,0 0,0 -0,2 2,5 14 8 29 16 ZW 1002,8 52 14 0,0
23.02.2017 13:00:00 10,9 2,4 0,1 0,0 -0,2 2,5 12 7 36 19 ZW 1004,5 26 42 0,0
23.02.2017 12:00:00 9,2 2,4 0,1 0,0 -0,2 2,5 22 12 39 21 WZW 1006,5 18 51 0,0
23.02.2017 11:00:00 7,7 3,4 0,0 0,0 -0,2 2,5 16 9 30 16 WZW 1007,4 18 39 0,0
23.02.2017 10:00:00 6,7 3,7 0,0 0,0 -0,2 2,5 9 5 23 13 Z 1008,1 34 0 0,0
23.02.2017 09:00:00 5,9 4,1 0,0 0,0 -0,2 2,5 13 7 27 14 ZW 1008,7 40 0 0,0
23.02.2017 08:00:00 5,8 4,2 0,0 0,0 -0,2 2,5 12 7 24 13 ZW 1009,2 41 0 0,0
23.02.2017 07:00:00 5,7 4,7 0,0 0,0 -0,2 2,5 12 6 30 16 ZW 1009,0 28 0 0,0
23.02.2017 06:00:00 6,0 4,7 0,0 0,0 -0,2 2,5 16 9 27 14 WZW 1009,0 32 0 0,0
23.02.2017 05:00:00 5,6 4,7 0,0 0,0 -0,2 2,5 15 8 28 15 WZW 1009,3 18 0 0,1
23.02.2017 04:00:00 5,8 4,3 0,0 0,0 -0,2 2,5 16 8 29 16 WZW 1009,5 27 0 0,0
23.02.2017 03:00:00 5,8 4,2 0,0 0,0 -0,2 2,5 22 12 39 21 WZW 1009,7 28 0 0,0
23.02.2017 02:00:00 6,1 4,3 0,0 0,0 -0,2 2,5 17 9 32 17 W 1010,0 47 0 0,0
23.02.2017 01:00:00 5,7 4,2 0,0 0,0 -0,2 2,5 15 8 28 15 WZW 1010,4 27 0 0,0
23.02.2017 00:00:00 5,8 4,5 0,0 0,0 -0,2 2,5 16 8 32 17 WZW 1010,7 32 0 0,0
22.02.2017 23:00:00 5,9 4,4 0,0 0,0 -0,2 2,5 16 9 28 15 WZW 1010,9 17 0 0,2
22.02.2017 22:00:00 6,5 3,9 0,0 0,0 -0,2 2,5 20 11 40 22 WZW 1010,4 42 0 0,0
22.02.2017 21:00:00 6,2 4,1 0,0 0,0 -0,2 2,5 18 10 32 17 WZW 1010,5 60 0 0,0
22.02.2017 20:00:00 5,9 4,5 0,0 0,0 -0,2 2,5 13 7 40 22 WZW 1010,6 38 0 0,1
22.02.2017 19:00:00 6,1 4,6 0,0 0,0 -0,2 2,5 18 10 35 19 WZW 1010,7 13 0 0,0
22.02.2017 18:00:00 5,6 5,2 0,0 0,0 -0,2 2,5 12 6 34 18 ZW 1010,7 29 0 0,4
22.02.2017 17:00:00 5,8 5,1 0,0 0,0 -0,2 2,5 17 9 40 22 WZW 1011,1 4,0 0 0,5
22.02.2017 16:00:00 5,8 5,4 0,0 0,0 -0,2 2,5 18 10 32 18 ZW 1011,0 9 0 0,8
22.02.2017 15:00:00 6,3 5,5 0,0 0,0 -0,2 2,5 13 7 30 16 ZW 1011,3 11 0 0,1
22.02.2017 14:00:00 6,6 5,6 0,0 0,0 -0,2 2,5 11 6 32 17 ZW 1011,6 23 0 0,1
22.02.2017 13:00:00 6,7 5,9 0,0 0,0 -0,2 2,5 19 11 39 21 ZW 1011,7 15 0 0,3
22.02.2017 12:00:00 6,9 6,0 0,0 0,0 -0,2 2,5 20 11 36 20 ZW 1012,1 12 0 0,3
22.02.2017 11:00:00 6,8 6,4 0,0 0,0 -0,2 2,5 14 8 36 20 ZW 1012,4 5 0 0,2
22.02.2017 10:00:00 7,1 5,9 0,0 0,0 -0,2 2,5 17 9 35 19 ZW 1012,8 25 0 0,0
22.02.2017 09:00:00 6,8 6,3 0,0 0,0 -0,2 2,5 13 7 24 13 WZW 1013,1 21 0 0,8
22.02.2017 08:00:00 6,3 6,3 0,0 0,0 -0,2 2,5 10 6 27 15 ZW 1013,2 4,6 0 0,7
22.02.2017 07:00:00 5,9 5,9 0,0 0,0 -0,2 2,5 8 4 21 11 Z 1013,2 2,1 0 1,9
22.02.2017 06:00:00 4,0 4,0 0,0 0,0 -0,2 2,5 6 3 10 5 OZO 1014,1 0,4 0 1,1
22.02.2017 05:00:00 5,2 5,2 0,0 0,0 -0,2 2,5 7 4 11 6 OZO 1014,3 0,6 0 1,1
22.02.2017 04:00:00 5,1 5,1 0,0 0,0 -0,2 2,5 7 4 12 6 Z 1015,0 2,0 0 0,4
22.02.2017 03:00:00 3,8 3,8 0,0 0,0 -0,3 2,5 3 2 14 7 NW 1016,0 2,0 0 0,0
22.02.2017 02:00:00 3,8 3,8 0,0 0,0 -0,2 2,5 4 2 9 5 OZO 1016,5 2,1 0 0,1
22.02.2017 01:00:00 4,0 4,0 0,0 0,0 -0,3 2,5 3 2 7 4 OZO 1016,9 1,0 0 0,0
22.02.2017 00:00:00 4,4 4,4 0,0 0,0 -0,3 2,5 5 3 12 7 ZW 1017,2 4,5 0 0,0
21.02.2017 23:00:00 5,0 4,7 0,0 0,0 -0,3 2,5 6 3 15 8 ZW 1017,0 9 0 0,1
21.02.2017 22:00:00 5,5 4,9 0,0 0,0 -0,3 2,5 9 5 13 7 ZZW 1017,3 16 0 0,1
21.02.2017 21:00:00 4,8 4,8 0,0 0,0 -0,3 2,5 5 3 18 10 ZW 1017,3 3,4 0 0,5
21.02.2017 20:00:00 4,7 4,7 0,0 0,0 -0,3 2,5 6 3 9 5 OZO 1017,1 3,7 0 0,7
21.02.2017 19:00:00 4,6 4,6 0,0 0,0 -0,3 2,5 3 2 23 13 OZO 1016,7 2,7 0 0,1
21.02.2017 18:00:00 6,1 4,8 0,0 0,0 -0,3 2,5 10 5 24 13 W 1015,8 20 0 0,0
21.02.2017 17:00:00 6,0 4,0 0,0 0,0 -0,3 2,5 8 4 42 23 W 1015,3 36 0 0,2
21.02.2017 16:00:00 6,4 4,4 0,0 0,0 -0,3 2,5 19 10 43 23 W 1014,9 14 0 0,2
21.02.2017 15:00:00 7,1 4,4 0,0 0,0 -0,3 2,5 23 13 50 27 WNW 1014,3 23 0 1,7
21.02.2017 14:00:00 6,6 5,7 0,0 0,0 -0,3 2,5 16 8 26 14 W 1014,0 6 0 0,6
21.02.2017 13:00:00 6,2 5,9 0,0 0,0 -0,3 2,5 11 6 19 11 WZW 1014,1 2,9 0 1,0
21.02.2017 12:00:00 5,9 5,5 0,0 0,0 -0,3 2,5 12 6 23 12 WZW 1014,4 3,9 0 1,9
21.02.2017 11:00:00 5,7 5,4 0,0 0,0 -0,3 2,5 12 7 21 11 ZW 1014,6 7 0 2,6
21.02.2017 10:00:00 5,3 5,2 0,0 0,0 -0,3 2,5 9 5 17 9 ZW 1014,7 3,5 0 3,7
21.02.2017 09:00:00 5,0 5,0 0,0 0,0 -0,3 2,5 9 5 22 12 ZW 1014,8 3,4 0 2,9
21.02.2017 08:00:00 4,9 4,9 0,0 0,0 -0,3 2,5 6 4 24 13 ZZW 1014,9 3,5 0 2,2
21.02.2017 07:00:00 4,7 4,7 0,0 0,0 -0,3 2,5 8 5 14 7 ZZO 1014,9 4,2 0 3,1
21.02.2017 06:00:00 4,3 4,3 0,0 0,0 -0,3 2,5 6 3 12 6 Z 1015,4 1,4 0 2,7
21.02.2017 05:00:00 4,4 4,4 0,0 0,0 -0,3 2,5 5 3 21 11 Z 1016,0 2,1 0 0,7
21.02.2017 04:00:00 4,2 4,2 0,0 0,0 -0,3 2,5 13 7 27 15 ZW 1016,5 3,9 0 0,8
21.02.2017 03:00:00 4,2 4,2 0,0 0,0 -0,3 2,5 8 4 21 11 Z 1016,9 3,1 0 1,2
21.02.2017 02:00:00 3,7 3,7 0,0 0,0 -0,3 2,5 12 7 19 11 WZW 1017,5 1,6 0 1,1
21.02.2017 01:00:00 3,6 3,6 0,0 0,0 -0,3 2,5 8 4 15 8 ZZO 1018,2 2,2 0 1,1
21.02.2017 00:00:00 3,5 3,5 0,0 0,0 -0,3 2,5 6 4 18 10 ZO 1018,4 1,4 0 1,2
20.02.2017 23:00:00 3,2 3,2 0,0 0,0 -0,3 2,5 10 6 17 9 OZO 1019,1 3,5 0 2,2
20.02.2017 22:00:00 3,2 3,0 0,0 0,0 -0,3 2,5 7 4 12 7 ZO 1019,2 3,0 0 2,0
20.02.2017 21:00:00 3,3 3,0 0,0 0,0 -0,3 2,5 6 3 23 12 ZO 1019,4 3,1 0 1,6
20.02.2017 20:00:00 4,5 2,6 0,0 0,0 -0,3 2,5 11 6 23 12 ZW 1019,2 5 0 0,2
20.02.2017 19:00:00 4,4 1,8 0,0 0,0 -0,3 2,5 8 4 21 11 ZW 1019,5 14 0 0,0
20.02.2017 18:00:00 4,4 1,9 0,0 0,0 -0,3 2,5 8 4 22 12 Z 1019,4 15 0 0,0
20.02.2017 17:00:00 4,8 2,1 0,0 0,0 -0,3 2,5 10 5 21 12 ZZW 1019,6 13 0 0,0
20.02.2017 16:00:00 4,9 1,9 0,0 0,0 -0,3 2,5 7 4 37 20 ZZW 1019,9 14 13 0,0
20.02.2017 15:00:00 5,0 1,8 0,0 0,0 -0,3 2,5 11 6 26 14 ZW 1020,4 11 4 0,0
20.02.2017 14:00:00 3,7 2,3 0,0 0,0 -0,3 2,5 9 5 20 11 ZZW 1021,5 7 0 0,0
20.02.2017 13:00:00 3,1 2,2 0,0 0,0 -0,3 2,5 6 3 10 5 Z 1022,4 4,7 0 0,0
20.02.2017 12:00:00 1,4 1,0 0,0 0,0 -0,3 2,5 2 1 6 3 NNO 1023,7 2,0 0 0,0
20.02.2017 11:00:00 1,1 0,9 0,0 0,0 -0,3 2,5 2 1 4 2 O 1024,4 1,8 0 0,0
20.02.2017 10:00:00 0,8 0,8 0,0 0,0 -0,3 2,5 3 1 6 3 W 1024,5 0,9 0 0,0
20.02.2017 09:00:00 0,5 0,5 0,0 0,0 -0,3 2,5 0 0 4 2 N 1024,7 0,5 0 0,0
20.02.2017 08:00:00 0,2 0,2 0,0 0,0 -0,3 2,5 0 0 5 3 N 1024,4 0,3 0 0,1
20.02.2017 07:00:00 0,2 0,2 0,0 0,0 -0,3 2,5 3 2 4 2 ZO 1024,2 1,7 0 0,1
20.02.2017 06:00:00 0,2 0,2 0,0 0,0 -0,3 2,5 0 0 4 2 N 1024,2 2,1 0 0,3
20.02.2017 05:00:00 0,2 0,2 0,0 0,0 -0,3 2,5 0 0 4 2 N 1024,2 0,7 0 0,2
20.02.2017 04:00:00 0,3 0,3 0,0 0,0 -0,3 2,5 2 1 5 3 ZZW 1023,9 1,0 0 0,2
20.02.2017 03:00:00 0,3 0,2 0,0 0,0 -0,3 2,5 4 2 6 3 ZW 1024,1 0,4 0 0,2
20.02.2017 02:00:00 0,5 0,4 0,0 0,0 -0,3 2,5 4 2 8 4 ZZO 1024,7 2,1 0 0,1
20.02.2017 01:00:00 0,8 0,4 0,0 0,0 -0,3 2,5 7 4 10 5 Z 1024,6 3,9 0 0,1
20.02.2017 00:00:00 0,2 -0,7 0,0 0,0 -0,3 2,5 3 2 10 5 NW 1024,6 4,3 0 0,0
19.02.2017 23:00:00 0,1 -0,6 0,0 0,0 -0,3 2,5 4 2 6 3 O 1024,4 4,5 0 0,0
19.02.2017 22:00:00 -0,1 -0,8 0,0 0,0 -0,3 2,5 2 1 11 6 ZZO 1024,0 5 0 0,0
19.02.2017 21:00:00 0,0 -0,7 0,0 0,0 -0,3 2,5 8 4 12 7 OZO 1024,0 5 0 0,0
19.02.2017 20:00:00 0,3 -0,5 0,0 0,0 -0,3 2,5 4 2 6 3 ZZO 1024,0 6 0 0,0
19.02.2017 19:00:00 0,1 -0,8 0,0 0,0 -0,3 2,5 4 2 9 5 W 1024,0 6 0 0,0
19.02.2017 18:00:00 0,9 -0,6 0,0 0,0 -0,3 2,5 6 3 11 6 ZW 1023,5 7 0 0,0
19.02.2017 17:00:00 1,6 -0,6 0,0 0,0 -0,3 2,5 6 3 20 11 ZZW 1023,4 9 0 0,0
19.02.2017 16:00:00 3,3 -0,9 0,0 -0,1 -0,3 2,5 9 5 18 10 Z 1023,3 14 50 0,0
19.02.2017 15:00:00 3,3 -1,0 0,0 -0,1 -0,3 2,5 10 5 19 10 Z 1023,4 16 0 0,0
19.02.2017 14:00:00 2,9 -0,7 0,0 -0,1 -0,3 2,5 12 6 20 11 Z 1024,3 13 1 0,0
19.02.2017 13:00:00 3,7 -1,0 0,0 -0,1 -0,3 2,5 8 4 14 8 Z 1024,5 15 0 0,0
19.02.2017 12:00:00 2,8 -0,8 0,0 -0,1 -0,3 2,5 5 3 8 5 ZZO 1025,5 15 5 0,0
19.02.2017 11:00:00 1,7 -0,9 0,0 -0,1 -0,3 2,5 5 3 10 5 NW 1026,3 9 1 0,0
19.02.2017 10:00:00 1,2 -0,3 0,0 -0,1 -0,3 2,5 2 1 6 3 ZW 1026,7 6 0 0,0
19.02.2017 09:00:00 0,0 -0,1 0,0 -0,1 -0,3 2,5 0 0 4 2 N 1026,9 0,6 0 0,0
19.02.2017 08:00:00 -0,2 -0,2 0,0 -0,1 -0,3 2,5 0 0 5 3 N 1026,9 1,0 0 0,0
19.02.2017 07:00:00 -0,1 -0,1 0,0 -0,1 -0,3 2,5 0 0 6 3 N 1026,7 0,6 0 0,0
19.02.2017 06:00:00 0,0 0,0 0,0 -0,1 -0,3 2,5 2 1 11 6 Z 1026,8 3,3 0 0,0
19.02.2017 05:00:00 0,1 0,1 0,0 -0,1 -0,3 2,5 0 0 6 4 N 1027,1 3,4 0 0,0
19.02.2017 04:00:00 0,1 0,1 0,0 -0,1 -0,3 2,5 3 2 9 5 O 1027,1 5 0 0,0
19.02.2017 03:00:00 0,2 0,2 0,0 -0,1 -0,3 2,5 0 0 6 4 N 1027,4 2,5 0 0,0
19.02.2017 02:00:00 0,1 0,1 0,0 -0,1 -0,3 2,5 3 2 5 3 ZZW 1027,8 1,9 0 0,0
19.02.2017 01:00:00 0,3 0,3 0,0 -0,1 -0,3 2,5 0 0 5 3 N 1028,0 3,0 0 0,0
19.02.2017 00:00:00 0,4 0,4 0,0 -0,1 -0,3 2,5 0 0 3 2 N 1028,3 3,6 0 0,0
18.02.2017 23:00:00 0,4 0,4 0,0 -0,1 -0,3 2,5 3 1 4 2 N 1028,3 1,1 0 0,0
18.02.2017 22:00:00 0,7 0,7 0,0 -0,1 -0,3 2,5 0 0 3 2 N 1028,5 4,4 0 0,0
18.02.2017 21:00:00 0,7 0,7 0,0 -0,1 -0,3 2,5 2 1 4 2 N 1028,4 4,6 0 0,0
18.02.2017 20:00:00 0,7 0,6 0,0 -0,1 -0,3 2,5 2 1 4 2 NNW 1028,5 4,8 0 0,0
18.02.2017 19:00:00 1,2 0,9 0,0 -0,1 -0,3 2,5 2 1 4 2 NNW 1028,3 10 0 0,0
18.02.2017 18:00:00 1,7 0,4 0,0 -0,1 -0,3 2,5 0 0 6 3 N 1027,9 21 0 0,0
18.02.2017 17:00:00 2,8 -0,2 0,0 -0,1 -0,3 2,5 3 2 5 3 ZW 1027,3 35 0 0,0
18.02.2017 16:00:00 3,2 -0,1 0,0 -0,1 -0,3 2,5 0 0 9 5 N 1027,1 47 0 0,0

tt = temperatuur
td = dauwpunt
tt 5cm = temperatuur 5cm
tt -5cm = temperatuur -5cm
tt -20cm = temperatuur -20cm
tt -100cm = temperatuur -100cm
ff = windsnelheid
fx = windstoten
dd = windrichting
ppp = luchtdruk
vv = zicht
sd = Zonneschijnduur
rr = neerslag

Weerstations in de omgeving